Regional Weather Roundup
Issued by NWS

Home | Current Version | Previous Version | Graphics & Text | Print | Product List | Glossary On
Versions: 1 2 3 4 5 6 7 8 9 10 11 12 13 14 15 16 17 18 19 20 21 22 23 24 25 26 27 28 29 30 31 32 33 34 35 36 37 38 39 40 41 42 43 44 45 46 47 48 49 50
574
ASUS43 KBIS 142102
RWRND

NORTH DAKOTA REGIONAL WEATHER ROUNDUP
NATIONAL WEATHER SERVICE BISMARCK ND
300 PM CST SUN FEB 14 2016

NOTE: "FAIR" INDICATES FEW OR NO CLOUDS BELOW 12,000 FEET WITH NO
SIGNIFICANT WEATHER AND/OR OBSTRUCTIONS TO VISIBILITY.


NDZ001>003-009>011-017-142200-
NORTHWEST NORTH DAKOTA

CITY           SKY/WX    TMP DP  RH WIND       PRES   REMARKS
WILLISTON      CLOUDY    37  29  72 SW6       29.69F
MINOT          PTSUNNY   38  26  62 W10       29.68F
MINOT AFB      MOSUNNY   37  36  93 CALM      29.67S
$$

NDZ018>021-031>035-040>046-142200-
SOUTHWEST NORTH DAKOTA

CITY           SKY/WX    TMP DP  RH WIND       PRES   REMARKS
BISMARCK       SUNNY     44  30  57 W9        29.71F
DICKINSON      CLOUDY    38  30  73 W13       29.68F
GARRISON         N/A     37  29  72 NW14      29.68F
HETTINGER ARPT CLOUDY    39  32  76 W20       29.74R
$$

NDZ004>008-012>016-024-026-027-054-142200-
NORTHEAST NORTH DAKOTA

CITY           SKY/WX    TMP DP  RH WIND       PRES   REMARKS
GRAND FORKS    LGT SNOW  19  14  81 S16       29.74S WCI   4
GRND FRKS AFB  CLOUDY    19  14  79 S12       29.71F WCI   7
DEVILS LAKE    CLOUDY    24  20  84 W9        29.68S WCI  14
$$

NDZ022-023-025-028>030-036>039-047>053-142200-
SOUTHEAST NORTH DAKOTA

CITY           SKY/WX    TMP DP  RH WIND       PRES   REMARKS
FARGO          CLOUDY    19  14  81 S20       29.77F HAZE    WCI   3
JAMESTOWN      CLOUDY    29  24  82 NW10      29.70R WCI  20
$$





USA.gov is the U.S. government's official web portal to all federal, state and local government web resources and services.